When you browse on this site, cookies collect data to enhance your experience and personalize the content and advertising you see.
Visit our Privacy Policy to learn more. By continuing to use the site, you agree to this use of cookies and data.
  • Em Portugal
  • Lista de países
  • Para 7 dias
  • Temperatura da água
  • Mapa do tempo
  • Widgets de tempo
  • user-avatar
    Iniciar Sessão

    Previsão horária em Polikschina

    Hoje, 15 Outubro, Terça-feira

    Tempo Temperatura Precipitação Vento Pressão Humidade
    00:00 +12°C° 0 mm 3 m/s 744 mmHg 92%
    01:00 +11°C° 0 mm 3 m/s 744 mmHg 92%
    02:00 +10°C° 0 mm 3 m/s 745 mmHg 92%
    03:00 +10°C° 0 mm 2 m/s 745 mmHg 93%
    04:00 +9°C° 0 mm 2 m/s 745 mmHg 94%
    05:00 +9°C° 0 mm 1 m/s 745 mmHg 94%
    06:00 +10°C° 0 mm 1 m/s 745 mmHg 93%
    07:00 +10°C° 0 mm 1 m/s 746 mmHg 91%
    08:00 +9°C° 0 mm 0 m/s 746 mmHg 90%
    09:00 +11°C° 0 mm 1 m/s 746 mmHg 85%
    10:00 +13°C° 0 mm 1 m/s 746 mmHg 79%
    11:00 +14°C° 0 mm 2 m/s 746 mmHg 74%
    12:00 +15°C° 0 mm 2 m/s 746 mmHg 71%
    13:00 +16°C° 0 mm 2 m/s 746 mmHg 67%
    14:00 +16°C° 0 mm 2 m/s 746 mmHg 64%
    15:00 +15°C° 0 mm 2 m/s 746 mmHg 69%
    16:00 +13°C° 0 mm 3 m/s 746 mmHg 73%
    17:00 +13°C° 0 mm 3 m/s 746 mmHg 78%
    18:00 +12°C° 0 mm 3 m/s 746 mmHg 79%
    19:00 +12°C° 0 mm 4 m/s 746 mmHg 81%
    20:00 +11°C° 0 mm 4 m/s 746 mmHg 82%
    21:00 +11°C° 0 mm 4 m/s 745 mmHg 82%
    22:00 +10°C° 0 mm 5 m/s 745 mmHg 82%
    23:00 +10°C° 0 mm 5 m/s 745 mmHg 82%

    Amanhã, 16 Outubro, Quarta-feira

    Tempo Temperatura Precipitação Vento Pressão Humidade
    00:00 +10°C° 0 mm 5 m/s 745 mmHg 82%
    01:00 +10°C° 0 mm 5 m/s 745 mmHg 83%
    02:00 +10°C° 0 mm 5 m/s 745 mmHg 84%
    03:00 +10°C° 0 mm 5 m/s 745 mmHg 85%
    04:00 +10°C° 0 mm 5 m/s 744 mmHg 87%
    05:00 +10°C° 0 mm 5 m/s 744 mmHg 88%
    06:00 +10°C° 0 mm 5 m/s 743 mmHg 87%
    07:00 +10°C° 0 mm 5 m/s 743 mmHg 86%
    08:00 +10°C° 0 mm 6 m/s 743 mmHg 85%
    09:00 +13°C° 0 mm 6 m/s 743 mmHg 78%
    10:00 +15°C° 0 mm 7 m/s 743 mmHg 70%
    11:00 +16°C° 0 mm 7 m/s 742 mmHg 63%
    12:00 +17°C° 0 mm 7 m/s 742 mmHg 62%
    13:00 +17°C° 0 mm 7 m/s 742 mmHg 61%
    14:00 +19°C° 0 mm 6 m/s 742 mmHg 61%
    15:00 +17°C° 0 mm 6 m/s 741 mmHg 66%
    16:00 +16°C° 0 mm 5 m/s 741 mmHg 70%
    17:00 +15°C° 0 mm 4 m/s 741 mmHg 75%
    18:00 +15°C° 0 mm 4 m/s 741 mmHg 77%
    19:00 +14°C° 0 mm 4 m/s 742 mmHg 79%
    20:00 +14°C° 0 mm 4 m/s 742 mmHg 81%
    21:00 +14°C° 0 mm 4 m/s 742 mmHg 84%
    22:00 +14°C° 0 mm 3 m/s 742 mmHg 86%
    23:00 +13°C° 0 mm 3 m/s 742 mmHg 89%

    Depois de amanhã, 17 Outubro, Quinta-feira

    Tempo Temperatura Precipitação Vento Pressão Humidade
    00:00 +13°C° 0 mm 3 m/s 743 mmHg 89%
    01:00 +12°C° 0 mm 3 m/s 743 mmHg 88%
    02:00 +12°C° 0 mm 2 m/s 743 mmHg 88%
    03:00 +12°C° 0 mm 2 m/s 743 mmHg 89%
    04:00 +12°C° 0 mm 2 m/s 743 mmHg 90%
    05:00 +10°C° 0 mm 2 m/s 743 mmHg 91%
    06:00 +10°C° 0 mm 3 m/s 743 mmHg 90%
    07:00 +10°C° 0 mm 3 m/s 743 mmHg 88%
    08:00 +10°C° 0 mm 4 m/s 742 mmHg 87%
    09:00 +12°C° 0 mm 5 m/s 742 mmHg 78%
    10:00 +13°C° 0 mm 6 m/s 742 mmHg 69%
    11:00 +15°C° 0 mm 7 m/s 742 mmHg 60%
    12:00 +14°C° 0 mm 6 m/s 742 mmHg 62%
    13:00 +14°C° 0 mm 6 m/s 742 mmHg 64%
    14:00 +14°C° 0 mm 5 m/s 742 mmHg 65%
    15:00 +14°C° 0 mm 5 m/s 742 mmHg 69%
    16:00 +13°C° 0 mm 5 m/s 742 mmHg 72%
    17:00 +12°C° 0 mm 4 m/s 742 mmHg 76%
    18:00 +12°C° 0 mm 4 m/s 742 mmHg 79%
    19:00 +11°C° 0 mm 4 m/s 743 mmHg 83%
    20:00 +11°C° 0 mm 4 m/s 743 mmHg 86%
    21:00 +10°C° 0 mm 4 m/s 743 mmHg 88%
    22:00 +10°C° 0 mm 4 m/s 744 mmHg 89%
    23:00 +10°C° 0 mm 4 m/s 744 mmHg 91%

    18 Outubro, Sexta-feira

    Tempo Temperatura Precipitação Vento Pressão Humidade
    00:00 +8°C° 0 mm 4 m/s 744 mmHg 91%
    01:00 +9°C° 0 mm 3 m/s 745 mmHg 91%
    02:00 +9°C° 0 mm 3 m/s 745 mmHg 91%
    03:00 +9°C° 0 mm 3 m/s 745 mmHg 93%
    04:00 +8°C° 0 mm 2 m/s 745 mmHg 94%
    05:00 +8°C° 0 mm 2 m/s 746 mmHg 95%
    06:00 +8°C° 0 mm 2 m/s 746 mmHg 94%
    07:00 +8°C° 0 mm 2 m/s 746 mmHg 93%
    08:00 +9°C° 0 mm 2 m/s 746 mmHg 92%
    09:00 +10°C° 0 mm 1 m/s 747 mmHg 88%
    10:00 +11°C° 0 mm 1 m/s 747 mmHg 83%
    11:00 +12°C° 0 mm 1 m/s 747 mmHg 79%
    12:00 +13°C° 0 mm 1 m/s 747 mmHg 76%
    13:00 +13°C° 0 mm 1 m/s 747 mmHg 74%
    14:00 +14°C° 0 mm 1 m/s 747 mmHg 71%
    15:00 +13°C° 0 mm 1 m/s 747 mmHg 75%
    16:00 +13°C° 0 mm 1 m/s 747 mmHg 80%
    17:00 +11°C° 0 mm 0 m/s 747 mmHg 84%
    18:00 +12°C° 0 mm 1 m/s 747 mmHg 85%
    19:00 +11°C° 0 mm 1 m/s 747 mmHg 86%
    20:00 +11°C° 0 mm 1 m/s 748 mmHg 88%
    21:00 +11°C° 0 mm 1 m/s 748 mmHg 89%
    22:00 +9°C° 0 mm 2 m/s 748 mmHg 91%
    23:00 +9°C° 0 mm 2 m/s 748 mmHg 92%

    19 Outubro, Sábado

    Tempo Temperatura Precipitação Vento Pressão Humidade
    00:00 +9°C° 0 mm 2 m/s 748 mmHg 93%
    01:00 +9°C° 0 mm 2 m/s 748 mmHg 93%
    02:00 +8°C° 0 mm 2 m/s 748 mmHg 93%
    03:00 +8°C° 0 mm 2 m/s 748 mmHg 93%
    04:00 +9°C° 0 mm 2 m/s 748 mmHg 93%
    05:00 +9°C° 0 mm 2 m/s 749 mmHg 94%
    06:00 +9°C° 0 mm 2 m/s 749 mmHg 93%
    07:00 +9°C° 0 mm 2 m/s 749 mmHg 92%
    08:00 +9°C° 0 mm 2 m/s 749 mmHg 91%
    09:00 +12°C° 0 mm 2 m/s 749 mmHg 86%
    10:00 +12°C° 0 mm 3 m/s 749 mmHg 81%
    11:00 +14°C° 0 mm 3 m/s 749 mmHg 76%
    12:00 +14°C° 0 mm 3 m/s 749 mmHg 74%
    13:00 +16°C° 0 mm 3 m/s 749 mmHg 72%
    14:00 +16°C° 0 mm 3 m/s 749 mmHg 70%
    15:00 +14°C° 0 mm 3 m/s 749 mmHg 74%
    16:00 +13°C° 0 mm 3 m/s 749 mmHg 79%
    17:00 +12°C° 0 mm 3 m/s 748 mmHg 83%
    18:00 +12°C° 0 mm 3 m/s 749 mmHg 84%
    19:00 +11°C° 0 mm 3 m/s 749 mmHg 85%
    20:00 +11°C° 0 mm 3 m/s 749 mmHg 87%
    21:00 +11°C° 0 mm 3 m/s 749 mmHg 87%
    22:00 +10°C° 0 mm 3 m/s 749 mmHg 86%
    23:00 +10°C° 0 mm 4 m/s 749 mmHg 86%

    20 Outubro, Domingo

    Tempo Temperatura Precipitação Vento Pressão Humidade
    00:00 +10°C° 0 mm 4 m/s 749 mmHg 86%
    01:00 +10°C° 0 mm 4 m/s 749 mmHg 85%
    02:00 +10°C° 0 mm 4 m/s 749 mmHg 85%
    03:00 +8°C° 0 mm 4 m/s 748 mmHg 85%
    04:00 +8°C° 0 mm 4 m/s 748 mmHg 86%
    05:00 +8°C° 0 mm 5 m/s 748 mmHg 86%
    06:00 +8°C° 0 mm 5 m/s 748 mmHg 86%
    07:00 +8°C° 0 mm 5 m/s 748 mmHg 86%
    08:00 +8°C° 0 mm 5 m/s 748 mmHg 85%
    09:00 +10°C° 0 mm 6 m/s 748 mmHg 81%
    10:00 +11°C° 0 mm 6 m/s 748 mmHg 76%
    11:00 +14°C° 0 mm 6 m/s 748 mmHg 72%
    12:00 +14°C° 0 mm 6 m/s 748 mmHg 70%
    13:00 +15°C° 0 mm 7 m/s 748 mmHg 68%
    14:00 +16°C° 0 mm 7 m/s 748 mmHg 66%
    15:00 +15°C° 0 mm 6 m/s 747 mmHg 70%
    16:00 +14°C° 0 mm 6 m/s 747 mmHg 73%
    17:00 +13°C° 0 mm 6 m/s 747 mmHg 76%
    18:00 +11°C° 0 mm 6 m/s 747 mmHg 77%
    19:00 +11°C° 0 mm 6 m/s 747 mmHg 77%
    20:00 +10°C° 0 mm 6 m/s 748 mmHg 78%
    21:00 +10°C° 0 mm 6 m/s 748 mmHg 79%
    22:00 +9°C° 0 mm 6 m/s 748 mmHg 80%
    23:00 +9°C° 0 mm 6 m/s 748 mmHg 81%
    Mostrar mais